Glendale Luke AFB, AZ

2:23 AM MST on December 11, 2019 (GMT -0700)
Luke Air Force Base

Weather History for KLUF - November, 2019

Change the Weather History Date:

Thursday, November 14, 2019

  Actual Average Record
Temperature  
Mean Temperature 66 °F -  
Max Temperature 80 °F 76 °F 91 °F (1936)
Min Temperature 52 °F 43 °F 27 °F (1938)
Cooling Degree Days 1    
Growing Degree Days 16 (Base 50)    
Moisture  
Dew Point 37 °F    
Average Humidity 40    
Maximum Humidity 59    
Minimum Humidity 18    
Precipitation  
Precipitation 0.00 in - - ()
Sea Level Pressure  
Sea Level Pressure 30.03 in    
Wind  
Wind Speed 3 mph (North)    
Max Wind Speed 8 mph    
Max Gust Speed -    
Visibility 10 miles    
Events      
Averages and records for this station are not official NWS values.
T = Trace of Precipitation, MM = Missing Value Source: NWS Daily Summary

Daily Weather History Graph

Daily Weather History Graph

Search for Another Location

Airport or City:

Astronomy

Nov. 14, 2019 Rise Set
Actual Time 7:00 AM MST 5:27 PM MST
Civil Twilight 6:33 AM MST 5:53 PM MST
Nautical Twilight 6:03 AM MST 6:23 PM MST
Astronomical Twilight 5:34 AM MST 6:53 PM MST
Moon 7:20 PM MST (11/14) 8:56 AM MST (11/14)
Length of Visible Light 11h 20m
Length of Day
10h 27m
Waning Gibbous, 95% of the Moon is Illuminated
Nov 14
Waning Gibbous
Nov 19
Last Quarter
Nov 26
New
Dec 3
First Quarter
Dec 11
Full

Hourly Weather History & Observations

Time (MST) Temp. Dew Point Humidity Pressure Visibility Wind Dir Wind Speed Gust Speed Precip Events Conditions
12:58 AM 54.7 °F 36.9 °F 51% 29.96 in 10.0 mi NNW 6.9 mph - N/A   Clear
1:58 AM 56.1 °F 38.7 °F 52% 29.98 in 10.0 mi NNE 4.6 mph - N/A   Clear
2:58 AM 53.2 °F 38.5 °F 57% 29.99 in 10.0 mi North 3.5 mph - N/A   Clear
3:58 AM 53.1 °F 37.8 °F 56% 29.99 in 10.0 mi Calm Calm - N/A   Clear
4:58 AM 52.3 °F 37.9 °F 58% 30.01 in 10.0 mi Calm Calm - N/A   Clear
5:58 AM 52.2 °F 38.3 °F 59% 30.02 in 10.0 mi North 3.5 mph - N/A   Clear
6:58 AM 52.0 °F 38.1 °F 59% 30.04 in 10.0 mi NNE 4.6 mph - N/A   Clear
7:58 AM 54.3 °F 39.4 °F 57% 30.06 in 10.0 mi North 5.8 mph - N/A   Clear
8:58 AM 61.3 °F 39.7 °F 45% 30.09 in 10.0 mi Calm Calm - N/A   Clear
9:58 AM 65.3 °F 38.3 °F 37% 30.11 in 10.0 mi Calm Calm - N/A   Clear
10:58 AM 69.8 °F 37.8 °F 31% 30.10 in 10.0 mi NNE 3.5 mph - N/A   Clear
11:58 AM 73.8 °F 37.8 °F 27% 30.08 in 10.0 mi North 3.5 mph - N/A   Clear
12:58 PM 76.6 °F 37.0 °F 24% 30.04 in 9.0 mi Calm Calm - N/A   Clear
1:58 PM 78.6 °F 36.5 °F 22% 30.01 in 10.0 mi Calm Calm - N/A   Clear
2:58 PM 80.2 °F 35.4 °F 20% 30.00 in 10.0 mi Calm Calm - N/A   Clear
3:58 PM 80.4 °F 34.3 °F 19% 29.99 in 10.0 mi NW 3.5 mph - N/A   Clear
4:58 PM 79.9 °F 32.5 °F 18% 29.99 in 10.0 mi Calm Calm - N/A   Clear
5:58 PM 74.3 °F 36.1 °F 25% 30.01 in 10.0 mi Calm Calm - N/A   Clear
6:58 PM 66.9 °F 38.3 °F 35% 30.02 in 9.0 mi Calm Calm - N/A   Clear
7:58 PM 64.2 °F 40.1 °F 41% 30.03 in 10.0 mi NNW 3.5 mph - N/A   Clear
8:58 PM 61.5 °F 38.8 °F 43% 30.05 in 10.0 mi NNW 8.1 mph - N/A   Clear
9:58 PM 59.7 °F 37.2 °F 43% 30.05 in 10.0 mi NNW 6.9 mph - N/A   Clear
10:58 PM 58.3 °F 36.5 °F 44% 30.06 in 10.0 mi North 5.8 mph - N/A   Clear
11:58 PM 57.0 °F 36.5 °F 46% 30.06 in 10.0 mi North 6.9 mph - N/A   Clear